Theta_e
308 308 308 308 308 308 308 308 309 309 309 309 309 309 310 310 311 311 311 312 312 312 311 312 312 313 314 313 314 315 307 309 310 311 314 314 313 314 313 314 317 317 317 318 320
308 308 308 308 308 308 308 308 308 308 309 309 309 309 310 310 311 311 312 313 313 312 312 312 312 314 315 315 314 311 306 309 309 309 313 313 314 314 314 313 314 315 316 317 321
308 308 308 308 308 308 308 308 308 308 309 309 309 309 310 310 311 313 313 312 312 312 312 313 314 315 315 314 314 309 308 309 311 313 314 314 314 314 313 311 314 315 316 317 322
308 308 308 308 308 308 308 308 308 308 308 309 309 309 310 310 310 313 312 311 312 312 313 314 314 313 312 312 314 312 312 311 313 314 313 314 314 313 313 315 315 315 315 317 319
309 309 308 308 308 308 308 308 308 308 308 309 309 309 309 310 311 312 311 311 311 312 313 313 314 313 311 312 313 312 312 313 314 314 314 313 314 313 314 315 315 315 315 316 319
308 309 308 308 308 308 308 308 308 308 308 309 309 309 309 310 310 313 311 311 311 312 313 313 313 313 313 312 311 312 313 313 314 314 314 313 312 313 314 316 315 315 315 315 316
308 308 308 308 308 308 308 308 308 308 309 309 309 310 310 310 310 313 315 313 312 311 312 312 313 313 313 312 313 312 313 310 312 312 312 313 311 310 314 314 314 315 314 314 314
314 312 311 310 310 309 309 309 310 310 310 310 311 311 310 310 310 311 314 314 314 313 313 313 313 314 313 313 312 312 309 312 310 310 312 313 312 311 313 313 314 314 314 314 313
321 318 316 316 315 315 314 314 314 313 313 313 313 313 312 312 311 311 314 314 314 314 314 314 314 313 312 309 309 308 309 311 310 310 311 310 312 312 312 312 312 313 314 314 313
322 323 322 321 320 319 318 317 316 316 316 315 315 314 313 313 313 313 313 314 314 313 313 314 313 308 305 308 308 309 311 310 312 311 310 311 309 309 312 312 313 314 314 313 313
322 322 322 322 323 323 323 323 322 319 317 316 315 313 314 314 314 315 314 314 314 313 311 311 310 310 310 308 309 308 310 311 311 311 311 310 309 310 311 311 311 313 314 315 315
319 321 322 322 322 323 323 322 320 318 319 319 317 315 315 314 314 315 315 314 313 311 309 309 310 309 309 308 311 311 312 311 310 310 310 310 310 309 310 310 314 316 315 316 314
317 318 317 321 320 320 320 321 322 322 321 323 323 321 317 316 314 315 315 314 311 310 309 310 311 309 310 310 310 310 311 311 312 311 309 309 310 309 309 310 312 314 315 313 313
318 318 318 318 319 319 319 321 320 322 321 321 320 321 320 317 314 314 315 314 311 312 309 310 310 311 310 311 310 311 309 310 312 314 314 310 315 312 312 311 309 313 312 313 312
313 316 318 317 317 318 319 318 320 321 324 317 318 317 315 316 315 312 314 314 311 311 311 313 311 311 312 311 310 312 309 310 312 311 311 311 312 315 310 312 312 311 314 313 313
310 312 314 318 317 318 318 317 317 320 325 319 314 314 313 313 311 311 312 312 312 311 311 310 310 311 311 310 310 308 309 309 307 309 314 311 314 315 311 312 312 311 312 313 314
307 308 310 311 314 317 318 316 313 316 317 318 316 313 314 312 310 310 310 311 312 314 314 311 311 310 310 310 309 310 312 315 315 312 317 310 311 317 313 310 309 310 311 311 313
304 306 307 308 309 313 316 317 315 315 316 315 314 313 315 312 311 309 310 311 310 311 312 316 317 310 308 312 312 309 313 315 316 316 316 311 313 313 308 309 311 310 309 310 311
302 303 305 307 308 309 312 315 316 315 315 317 315 318 317 314 315 310 308 309 311 308 315 314 314 310 308 309 312 310 313 312 312 303 308 313 311 310 310 308 309 309 308 310 310
300 300 301 304 307 309 311 312 313 314 315 314 319 318 319 316 315 312 311 310 311 308 311 313 316 310 310 310 309 310 310 314 310 313 314 315 312 316 315 312 309 306 307 308 309
299 298 299 301 306 310 310 308 310 313 314 317 318 318 317 317 315 314 316 313 309 310 310 312 314 313 309 309 311 310 311 312 313 312 314 313 316 308 312 310 311 309 310 310 310
298 297 303 304 308 307 308 306 309 310 311 312 315 316 317 315 316 316 316 316 313 310 312 312 315 317 310 308 310 310 311 313 317 314 311 312 318 310 308 308 308 310 310 310 310
299 300 302 308 305 307 305 306 307 307 311 312 313 313 312 316 317 316 314 314 312 311 313 312 313 318 317 314 311 311 309 312 312 312 312 314 318 304 305 306 308 308 309 310 310
298 298 299 304 307 304 304 306 307 307 306 308 311 312 314 314 313 316 317 314 313 312 312 313 313 316 320 316 313 313 310 310 314 318 317 315 318 312 308 306 307 309 310 311 309
297 296 299 298 301 304 306 307 306 306 307 307 306 307 309 311 311 311 310 309 309 313 312 314 313 313 314 314 312 312 313 312 313 315 317 317 315 315 313 307 308 312 310 311 310
297 296 298 298 300 302 301 303 305 307 308 309 308 308 307 308 308 308 310 312 313 311 313 312 315 313 316 314 315 312 313 313 313 313 314 315 315 315 313 314 311 312 314 310 309
298 298 298 296 293 295 297 302 303 302 302 303 305 306 308 307 305 305 304 305 307 310 311 310 310 312 317 315 315 315 314 314 312 311 312 314 314 313 311 309 311 314 314 313 313
Wind_Speed
11 10 9 8 8 7 6 6 5 5 4 5 5 5 5 5 7 6 5 4 6 5 5 4 4 2 1 2 3 3 4 2 4 6 4 5 4 4 5 6 10 9 6 6 19
10 10 9 9 8 7 6 6 5 5 5 5 6 5 5 5 6 7 6 6 6 6 6 5 4 3 2 2 2 4 4 8 5 5 3 4 5 9 5 6 8 9 12 10 20
10 10 10 9 8 7 7 6 6 6 5 6 6 6 5 4 5 4 6 6 7 8 7 6 6 4 2 2 1 3 4 5 4 4 3 3 3 7 6 4 12 16 17 16 23
11 10 10 10 9 8 8 7 7 6 6 6 6 6 5 3 4 3 4 5 7 9 9 8 6 3 3 2 1 1 2 3 1 2 1 2 2 4 12 11 7 14 14 20 24
12 11 11 10 10 9 9 8 8 7 7 7 6 6 4 4 4 4 5 5 7 9 10 6 5 4 3 3 2 2 1 2 4 4 4 4 9 7 14 17 14 10 15 21 25
12 13 12 11 11 11 10 9 9 8 8 7 7 6 5 4 4 8 7 7 8 8 8 5 2 2 3 2 2 1 1 4 6 7 7 4 4 3 9 20 19 16 18 22 26
12 12 12 11 11 11 10 10 9 9 8 8 8 7 8 9 6 9 11 10 9 8 6 4 3 3 5 3 1 2 4 5 7 5 5 6 7 10 23 16 18 21 20 24 27
11 11 10 11 10 10 10 9 9 8 8 8 7 7 6 8 12 10 12 12 10 9 7 6 5 3 2 5 5 2 4 3 2 4 1 7 10 6 7 17 22 22 21 24 27
12 10 10 9 9 8 8 8 9 8 8 7 7 5 6 6 13 14 13 10 9 8 7 6 6 3 4 5 4 6 3 4 8 5 1 3 8 2 2 11 20 22 25 28 28
14 11 11 9 9 9 7 7 7 8 8 7 9 4 10 4 8 13 14 13 8 9 6 5 3 4 3 3 6 6 4 4 5 2 4 4 13 11 16 11 20 22 25 30 33
16 11 14 10 8 7 6 5 5 4 9 7 2 3 2 7 5 10 15 14 9 7 5 2 3 7 15 8 3 5 4 6 4 4 5 8 8 15 14 17 25 34 36 36 37
10 10 12 12 9 8 5 2 2 1 6 11 19 17 14 5 5 10 15 11 7 5 6 4 9 12 4 5 4 4 4 5 5 4 5 9 13 15 15 16 31 37 40 43 41
12 16 10 13 12 10 9 6 4 1 4 8 16 16 22 22 9 14 20 10 4 6 8 9 5 5 9 5 6 4 7 4 7 4 4 5 8 8 10 16 30 41 48 36 35
9 13 19 10 7 7 8 12 7 2 3 5 7 8 15 14 7 16 24 9 3 11 7 7 4 5 4 5 8 7 9 7 4 2 5 2 8 5 7 9 8 31 23 27 29
8 13 13 20 12 13 9 10 8 8 5 1 2 2 12 11 10 10 27 13 7 8 7 7 8 6 6 6 8 6 5 6 3 4 3 1 4 3 3 6 18 9 15 12 15
8 12 10 13 13 15 14 7 1 2 11 2 2 3 5 1 2 5 11 3 3 5 3 4 1 6 7 2 6 8 6 6 4 2 5 9 7 4 6 8 3 2 2 4 8
10 12 12 9 7 5 6 6 3 4 1 4 3 4 1 2 2 3 6 6 7 5 11 1 5 2 4 6 3 2 6 2 3 0 7 1 5 16 7 8 6 5 8 10 9
12 13 12 10 8 6 9 4 4 6 3 3 3 4 4 5 2 4 6 4 6 2 2 8 8 11 7 9 8 8 8 6 8 5 5 1 8 6 9 14 17 13 12 7 6
13 11 12 11 13 12 6 4 4 5 3 6 2 3 3 2 2 3 5 4 7 10 9 6 7 2 3 3 12 6 9 6 5 1 2 5 8 8 13 10 12 13 6 5 7
6 6 13 10 15 14 3 8 6 4 3 4 7 8 6 4 6 5 6 4 6 12 7 4 7 3 2 3 2 7 8 3 1 3 4 5 7 7 4 8 7 8 18 12 10
6 2 5 17 17 10 6 6 4 7 2 2 4 3 4 6 6 6 6 3 6 4 20 2 3 1 3 7 11 3 5 2 5 5 5 2 7 8 13 8 7 4 7 13 13
1 1 4 23 7 6 9 5 3 7 21 7 2 4 6 10 8 12 11 8 8 9 10 11 2 8 9 3 1 4 6 8 6 4 4 3 12 4 7 5 9 5 3 9 11
3 3 4 23 7 9 2 2 4 4 5 6 6 7 5 5 6 9 5 9 10 8 9 8 5 3 2 2 1 5 5 8 4 4 9 7 12 1 3 5 8 7 6 10 13
5 1 5 14 13 4 4 3 4 6 9 10 4 5 3 3 4 4 2 3 8 13 14 11 5 9 11 3 5 8 9 9 17 12 15 14 26 8 7 7 7 10 10 11 14
9 4 3 3 7 4 1 3 10 6 12 8 5 16 11 6 12 17 17 19 16 14 4 5 7 8 17 14 3 4 14 20 15 26 12 27 18 27 14 9 17 17 11 16 20
11 6 5 2 1 4 8 11 9 7 0 4 13 1 4 16 18 17 6 5 10 3 3 3 5 7 19 18 19 15 13 16 26 30 26 30 22 27 13 25 15 25 30 29 26
14 14 7 6 3 3 4 2 4 3 16 22 13 10 7 9 3 6 6 11 9 7 3 2 2 3 7 14 20 15 27 27 15 23 20 23 34 31 8 9 20 27 35 32 29
Wind_Direction
188 190 193 198 200 204 208 215 226 235 246 257 265 273 277 282 285 275 265 234 217 213 209 216 214 206 138 106 99 116 67 201 218 152 245 179 164 159 185 165 184 204 208 205 189
198 196 200 204 209 213 218 225 233 244 252 263 272 277 277 284 283 268 239 232 221 217 210 210 193 173 127 110 100 98 117 215 198 200 239 205 191 169 167 185 216 222 221 209 191
212 212 205 210 216 222 225 234 242 247 255 260 269 279 287 295 289 233 220 225 223 210 198 183 172 160 122 132 133 143 184 195 214 214 246 214 210 173 169 228 221 228 218 202 194
227 225 222 217 221 226 235 238 243 253 259 262 267 274 285 277 216 208 216 207 194 184 174 169 166 151 116 164 148 145 244 188 226 218 205 219 206 204 212 234 242 240 236 209 203
231 235 238 236 231 234 238 243 248 252 259 266 269 270 273 253 248 193 175 164 169 169 165 165 167 156 162 176 155 151 269 268 269 257 249 256 246 237 247 247 248 243 221 217 212
237 236 240 245 246 245 247 251 254 258 262 265 269 270 255 242 236 202 185 176 173 168 166 172 180 173 135 147 153 161 248 273 276 255 241 218 261 210 247 241 246 239 226 218 219
233 239 242 242 249 253 255 256 259 260 262 265 272 269 256 250 242 216 213 211 208 205 200 202 191 190 159 112 92 15 329 329 249 251 238 214 288 236 245 239 236 237 228 221 221
226 230 237 245 243 249 256 262 264 265 269 271 270 275 255 246 234 225 219 219 217 215 209 199 189 170 121 122 34 52 48 356 311 156 279 158 271 273 263 233 237 234 230 227 224
218 222 230 235 244 248 253 258 268 269 265 267 273 256 261 242 229 218 208 209 196 189 180 179 172 127 119 87 9 3 232 209 318 209 107 163 273 271 269 226 245 244 242 240 236
220 215 221 230 239 247 253 256 264 270 264 263 250 269 240 239 222 216 212 210 199 190 163 173 134 85 44 114 230 202 209 231 234 211 170 216 263 268 264 257 255 258 252 247 244
208 209 225 224 228 238 254 281 270 251 226 216 226 218 301 232 230 204 199 187 165 164 159 119 128 188 213 198 153 141 184 218 237 241 201 232 248 264 268 259 262 262 256 251 247
219 210 213 227 221 230 225 201 189 307 306 245 248 246 248 259 229 204 188 176 169 166 116 49 235 224 123 168 181 188 228 254 276 241 192 268 255 255 255 246 251 258 260 257 250
250 230 215 220 222 235 239 220 220 322 281 268 241 242 238 233 228 208 185 179 144 141 190 184 211 165 167 174 175 218 209 213 231 319 235 306 271 235 264 249 255 258 258 259 259
240 242 215 222 237 213 217 216 217 139 284 247 220 229 212 204 239 210 198 180 182 198 166 239 232 140 178 202 149 242 199 184 198 53 256 13 288 238 230 256 262 259 266 268 262
236 257 210 209 221 185 162 129 143 171 273 206 177 205 168 179 141 191 190 198 177 175 144 235 174 173 184 202 173 232 128 167 155 178 347 326 289 212 105 257 254 283 284 283 272
234 261 258 172 206 197 198 214 255 154 229 271 89 142 129 134 77 99 174 153 156 141 263 257 254 175 200 130 159 150 78 54 50 95 271 184 180 211 180 212 271 194 125 345 306
230 219 233 235 227 180 186 169 93 208 40 189 176 160 129 141 110 125 160 184 173 155 223 117 219 218 162 92 51 130 108 290 314 28 244 180 212 256 281 251 232 246 253 300 297
246 234 222 208 203 186 181 172 191 208 220 71 105 45 184 152 204 162 135 217 250 109 89 199 257 168 189 190 166 203 164 175 205 205 266 268 238 251 231 273 265 272 280 277 246
259 249 236 208 199 192 167 234 229 201 173 157 75 156 209 197 163 140 208 238 214 170 193 181 260 230 173 149 161 192 214 189 89 71 13 225 280 277 256 264 253 250 261 232 222
275 255 241 202 194 183 155 226 215 216 166 142 195 185 188 203 165 195 183 200 214 190 189 231 277 193 226 123 358 175 163 96 345 180 246 263 277 231 249 244 256 208 225 221 217
300 257 217 183 179 176 218 219 199 190 176 213 217 225 170 192 194 186 212 273 211 201 196 163 213 171 135 210 172 159 200 188 138 169 185 282 263 218 228 193 197 242 248 225 211
225 225 174 164 167 203 224 188 203 202 225 241 251 219 205 193 199 205 215 220 203 148 167 201 236 235 222 253 289 272 227 176 193 206 231 172 263 183 217 208 201 178 185 199 199
212 251 174 177 205 213 260 234 214 214 190 197 226 218 199 230 250 215 197 217 207 162 181 160 194 258 259 271 332 222 198 197 123 105 207 158 259 219 206 192 211 236 233 214 200
180 212 226 218 232 183 199 222 224 214 237 252 270 258 212 225 269 286 253 304 257 212 230 174 173 189 230 252 147 195 189 204 208 217 227 225 243 249 237 235 237 228 213 208 210
187 228 212 229 251 245 277 285 227 228 216 210 257 239 242 243 250 255 260 276 279 276 212 179 222 209 247 267 297 283 208 201 203 227 217 249 232 249 223 215 227 222 210 223 223
174 167 198 258 270 181 221 234 250 259 139 234 237 356 257 239 242 270 347 238 236 84 236 249 246 219 251 242 243 230 258 233 212 223 225 247 256 253 208 224 221 238 253 243 240
210 189 186 224 177 154 217 177 237 239 266 258 267 275 252 266 304 283 272 263 268 282 251 228 263 300 264 249 247 242 232 230 225 225 218 231 243 255 250 206 218 238 247 250 252